Tracking 29059 objects as of 19-Jun-2024
HD Live streaming from Space Station
objects crossing your sky now

ONEWEB-0304

Track ONEWEB-0304 now!
10-day predictions
ONEWEB-0304 is classified as:


NORAD ID: 49092
Int'l Code: 2021-075T
Perigee: 1,199.5 km
Apogee: 1,202.1 km
Inclination: 87.9 °
Period: 109.3 minutes
Semi major axis: 7571 km
RCS: Unknown
Launch date: August 21, 2021
Source: United Kingdom (UK)
Launch site: TYURATAM MISSILE AND SPACE COMPLEX (TTMTR)
Your satellite tracking list
Your tracking list is empty




NASA's NSSDC Master Catalog

Two Line Element Set (TLE):
1 49092U 21075T   24170.86494370  .00000540  00000-0  13571-2 0  9992
2 49092  87.9167 150.8557 0001746  83.8171 276.3160 13.17659649137660
Source of the keplerian elements: AFSPC